Wind_Speed
70 69 68 67 66 66 66 65 65 63 61 61 64 63 58 55 50 51 51 48 50 46 39 39 44 45 42 38 36 36 36 41 40 39 32 30 30 29 30 31 25 29 32 25
70 69 68 66 66 66 66 66 66 64 65 66 64 63 61 60 57 54 51 50 45 41 41 43 45 43 40 38 35 38 40 41 37 38 36 26 30 28 31 31 29 28 31 32
69 68 67 67 67 67 68 67 67 67 67 65 62 62 60 58 55 55 52 49 47 47 47 47 45 41 39 42 40 43 39 38 38 43 35 26 30 38 39 34 32 30 34 37
67 66 65 64 64 65 65 65 64 61 61 61 60 54 52 52 54 54 49 46 53 49 45 48 43 38 40 46 45 41 38 36 36 42 38 40 39 39 39 36 39 35 31 36
55 55 59 59 62 63 65 61 57 54 53 49 49 46 44 41 39 40 45 43 41 51 52 44 39 44 46 46 42 39 36 35 35 36 38 43 41 40 39 33 34 34 28 30
48 49 50 51 52 53 52 52 48 47 46 37 38 30 31 32 35 42 44 42 44 36 35 40 44 46 44 42 38 36 35 35 34 34 35 38 45 40 36 32 36 34 32 31
44 43 42 42 44 45 44 40 35 36 37 37 27 32 36 36 38 32 39 49 53 48 37 41 41 39 38 38 36 34 32 32 34 36 38 41 43 35 32 34 34 32 32 36
40 39 40 41 42 42 42 41 47 43 40 35 33 25 33 31 36 44 38 36 42 46 41 43 38 35 36 31 30 28 29 31 32 32 33 37 36 28 25 30 31 32 33 31
37 39 40 40 40 40 40 40 45 45 38 43 40 29 21 31 29 36 36 28 28 30 30 34 35 34 29 29 27 25 26 27 27 29 32 31 26 27 29 28 25 28 28 29
33 34 34 35 38 37 36 46 37 35 42 40 37 24 17 19 27 28 33 31 31 37 26 28 29 32 31 29 27 26 25 26 24 24 25 23 22 25 23 21 19 24 26 25
28 29 28 31 32 36 49 36 36 34 33 28 33 30 25 18 22 28 33 29 32 27 28 28 26 29 29 29 27 27 25 24 21 24 22 22 19 20 19 20 20 20 22 20
27 30 32 29 37 40 36 33 32 31 28 29 32 29 25 20 24 29 32 24 27 23 27 28 26 23 25 22 23 24 23 22 24 24 17 17 15 18 19 17 14 13 13 12
34 40 42 39 36 36 31 30 28 29 30 24 12 19 18 22 24 27 28 25 27 26 26 26 23 20 19 19 19 19 20 20 19 18 17 16 17 14 13 12 11 11 9 9
46 50 41 37 36 26 25 29 30 34 31 22 17 15 14 22 26 24 27 26 27 27 28 28 24 22 24 19 17 19 20 20 16 17 18 17 16 13 12 11 11 10 7 6
48 40 35 32 28 24 27 30 34 26 28 24 22 21 21 20 22 21 21 21 20 20 19 22 23 21 21 24 19 16 16 17 18 17 18 16 14 12 12 10 13 9 8 6
39 37 37 30 30 33 25 25 28 30 27 21 19 21 24 25 18 18 16 17 17 18 20 22 23 20 20 20 17 16 16 17 17 16 16 16 15 13 11 11 12 11 11 10
32 29 29 30 32 25 25 24 28 28 26 22 19 19 22 28 25 22 21 17 18 16 15 19 16 14 12 14 16 16 15 15 15 14 14 16 15 14 12 10 11 11 10 9
27 25 27 32 27 28 25 25 29 30 26 21 19 17 20 23 21 20 20 19 17 16 17 15 14 13 12 12 15 16 15 16 16 16 16 16 16 17 13 10 11 12 9 14
24 28 32 26 27 27 24 25 22 20 18 14 11 15 16 18 20 19 16 17 15 15 13 14 15 13 13 15 16 17 18 19 19 19 19 19 17 18 19 13 14 14 12 17
26 32 28 27 28 27 23 21 19 15 10 10 14 18 19 19 18 16 17 17 15 15 16 14 12 13 16 19 20 21 22 23 24 25 25 24 23 20 21 21 17 17 17 19
32 31 28 29 30 25 21 18 16 12 12 13 20 24 21 19 17 15 14 14 14 13 12 14 14 16 19 21 24 27 29 31 32 33 32 31 29 26 23 25 22 20 20 20
33 34 31 28 28 22 17 16 12 13 14 18 23 21 18 16 15 13 12 12 12 11 12 13 15 19 21 24 26 27 29 32 35 37 39 38 34 30 26 25 26 24 22 24
34 35 30 28 26 23 17 12 11 14 17 20 19 17 15 14 14 12 12 11 10 11 12 14 14 12 12 14 16 17 21 26 30 33 32 31 32 32 30 28 26 24 24 26
31 30 28 25 23 18 11 11 14 19 21 18 18 17 15 13 11 11 10 10 10 10 10 10 6 7 10 12 12 13 16 14 13 21 25 27 30 30 30 28 26 23 25 26
26 25 24 23 18 14 14 17 18 19 17 16 15 14 14 12 11 10 9 9 10 9 10 4 5 8 8 10 10 8 9 6 5 12 18 23 24 26 27 27 25 24 23 26
23 22 20 18 16 15 19 18 15 16 15 13 14 14 12 11 10 8 9 10 8 9 7 2 5 6 4 5 8 6 6 3 5 9 14 10 18 24 26 24 23 25 26 26
23 20 18 18 16 18 17 17 15 15 13 14 13 12 10 9 8 9 9 9 11 9 7 1 5 3 3 4 4 4 3 1 10 15 11 12 16 21 21 19 19 22 22 22
Wind_Direction
243 245 246 247 248 249 250 250 250 249 248 248 250 253 255 258 254 254 253 258 258 258 252 248 251 255 256 259 260 263 260 267 272 276 263 263 256 264 268 269 276 269 262 259
240 241 243 243 245 246 248 248 249 246 246 248 250 253 254 255 254 251 254 255 254 247 243 250 255 252 254 255 250 247 260 264 261 256 255 258 255 268 275 271 264 263 252 245
239 239 240 242 242 244 245 246 247 246 247 249 252 253 254 254 253 253 252 252 244 240 247 253 247 248 249 244 248 258 256 253 257 258 249 265 267 268 276 270 253 257 257 250
238 238 238 239 241 241 242 244 245 245 248 249 250 249 250 252 252 252 249 242 239 247 246 241 254 252 245 249 255 256 253 251 254 254 261 269 274 262 264 260 254 261 258 258
238 241 242 239 240 240 241 241 241 245 245 243 249 249 248 250 250 240 235 239 251 249 242 243 235 235 240 251 258 257 250 251 252 259 258 261 257 263 259 253 252 257 255 263
236 233 232 233 232 234 239 241 237 228 237 235 238 249 255 252 235 227 225 217 226 239 228 239 240 243 247 249 251 253 250 252 250 251 239 253 253 258 254 252 255 261 263 270
230 230 228 227 229 231 230 228 225 223 219 229 226 242 238 236 223 224 228 225 226 238 233 236 242 245 245 247 249 249 252 251 252 251 245 242 249 252 249 249 254 260 267 270
225 225 226 226 226 226 225 217 205 212 213 221 231 237 223 231 223 220 221 225 228 228 235 235 239 241 242 244 245 250 246 244 247 244 241 241 243 246 249 255 257 259 262 266
218 220 221 220 220 218 219 212 201 211 217 220 220 225 212 218 227 225 227 212 219 228 230 228 231 236 246 251 251 251 249 245 238 238 238 239 243 250 251 257 260 262 261 263
209 210 213 215 211 210 201 183 197 205 213 219 219 206 208 228 227 220 217 220 223 212 215 211 225 234 239 245 246 245 241 241 236 236 241 241 237 241 249 254 251 257 266 270
203 198 202 193 192 185 179 176 194 202 208 220 221 231 239 237 223 208 199 210 226 215 222 226 241 245 243 243 243 236 236 236 228 237 247 237 235 239 247 250 252 259 269 276
188 183 172 162 165 163 172 186 195 201 205 209 219 221 206 211 203 202 208 206 202 206 224 243 255 238 238 234 236 232 231 231 245 242 230 232 240 243 247 248 259 256 261 264
165 158 145 149 161 173 183 187 186 187 184 184 224 175 196 200 190 188 199 217 230 241 244 246 237 231 232 228 230 234 228 231 223 217 224 234 238 234 240 251 244 248 252 278
153 149 148 159 171 176 186 189 189 181 173 174 157 188 197 195 196 205 204 220 227 241 247 238 223 220 218 225 231 220 213 212 216 226 230 226 223 229 233 252 232 242 252 292
148 153 160 165 178 188 173 168 168 177 184 190 185 170 171 174 204 212 211 224 238 244 226 215 215 204 215 222 222 202 211 217 220 220 224 223 225 224 235 241 231 235 240 264
156 161 169 179 177 176 176 174 174 183 190 186 187 196 197 199 205 222 238 234 240 229 213 197 185 189 202 204 200 211 221 220 224 224 224 222 220 222 229 238 236 236 249 248
157 161 165 166 163 162 171 176 180 191 198 199 205 213 214 214 224 233 236 239 191 187 184 188 187 192 194 201 206 213 220 221 225 225 225 224 226 229 233 238 230 234 227 212
161 162 169 165 161 161 167 176 186 199 209 217 224 218 200 204 213 222 216 187 182 188 182 191 199 207 207 206 215 223 223 226 232 232 234 234 233 227 228 231 225 222 214 202
163 164 167 161 157 163 168 170 177 192 201 198 187 182 195 196 188 176 172 172 181 184 184 200 203 208 215 224 231 233 234 236 239 242 242 239 238 233 224 224 224 218 216 209
159 165 161 152 159 167 164 168 178 178 180 178 173 173 171 171 169 175 175 175 184 190 198 205 216 226 236 240 244 247 249 248 246 245 242 239 237 234 223 219 223 223 225 219
160 162 166 158 165 170 170 177 182 189 182 180 177 167 164 169 171 173 179 183 187 198 208 220 226 239 248 253 256 257 255 252 250 247 242 239 237 237 227 217 217 219 219 221
164 168 169 169 173 178 179 182 186 183 185 184 175 173 174 173 175 173 183 192 202 215 226 238 250 257 259 260 263 264 262 258 253 247 242 237 233 225 221 219 216 214 215 222
169 171 173 172 179 183 181 174 174 181 182 174 170 173 170 174 176 187 201 207 218 235 250 260 259 257 274 286 283 286 282 269 254 240 234 227 221 215 208 214 217 210 214 222
176 178 179 180 174 169 170 179 178 175 172 174 176 173 175 182 194 199 209 223 245 261 257 227 244 288 303 310 301 308 308 298 242 220 217 213 206 203 203 205 210 215 218 222
160 160 171 174 176 184 179 166 168 171 175 179 182 183 183 189 199 211 229 251 268 242 200 223 281 303 309 322 317 315 323 317 228 201 196 196 201 199 199 201 210 213 217 217
165 171 177 179 179 177 178 180 180 176 180 183 186 183 189 198 210 232 259 264 227 198 191 228 316 307 310 348 354 328 300 266 190 181 167 195 204 198 198 205 213 214 217 222
169 170 169 171 167 168 172 167 175 178 179 176 181 190 196 206 232 266 261 221 196 193 195 253 322 276 249 317 343 360 351 254 173 169 185 197 202 204 209 212 209 207 212 215
Height
5466 5475 5483 5492 5498 5502 5508 5513 5521 5530 5533 5531 5531 5539 5550 5557 5565 5567 5569 5573 5576 5581 5585 5586 5587 5589 5594 5600 5601 5600 5601 5599 5600 5601 5603 5603 5603 5604 5602 5602 5604 5601 5600 5600
5447 5455 5464 5472 5480 5484 5491 5494 5503 5509 5511 5512 5521 5528 5533 5538 5548 5553 5557 5559 5566 5569 5572 5573 5578 5580 5585 5588 5590 5592 5593 5590 5592 5591 5595 5596 5595 5596 5596 5595 5595 5593 5594 5592
5428 5437 5444 5454 5461 5467 5471 5476 5481 5489 5493 5502 5507 5512 5515 5521 5531 5537 5544 5548 5552 5555 5560 5562 5566 5571 5576 5576 5577 5581 5582 5582 5583 5584 5583 5585 5588 5589 5587 5587 5586 5587 5586 5585
5410 5419 5428 5436 5443 5448 5452 5457 5463 5475 5477 5489 5495 5496 5503 5508 5516 5522 5528 5533 5539 5544 5549 5551 5555 5559 5562 5565 5567 5569 5572 5573 5574 5575 5575 5577 5579 5579 5579 5578 5579 5579 5581 5578
5394 5404 5411 5417 5425 5429 5434 5443 5452 5458 5465 5473 5477 5481 5489 5495 5504 5508 5516 5522 5528 5529 5536 5542 5546 5548 5551 5554 5557 5558 5561 5562 5565 5566 5567 5569 5571 5570 5570 5572 5572 5572 5573 5573
5379 5387 5394 5401 5407 5413 5421 5434 5443 5448 5456 5462 5467 5474 5481 5486 5490 5495 5503 5512 5516 5519 5528 5530 5534 5538 5541 5545 5547 5548 5551 5553 5556 5557 5560 5560 5560 5562 5563 5565 5565 5564 5566 5569
5366 5375 5383 5390 5396 5405 5415 5425 5433 5440 5449 5454 5462 5465 5468 5473 5480 5486 5492 5499 5503 5512 5515 5520 5524 5528 5530 5534 5536 5539 5541 5543 5545 5547 5549 5549 5550 5554 5556 5557 5557 5558 5558 5558
5356 5364 5372 5380 5388 5396 5405 5415 5424 5433 5440 5448 5453 5457 5461 5465 5469 5473 5481 5489 5496 5503 5507 5511 5515 5518 5521 5525 5527 5530 5532 5534 5535 5537 5539 5540 5543 5548 5549 5548 5550 5552 5551 5551
5347 5355 5363 5371 5380 5387 5396 5406 5419 5428 5435 5440 5446 5451 5455 5459 5463 5469 5477 5482 5490 5495 5499 5503 5505 5509 5515 5517 5520 5522 5524 5525 5528 5529 5530 5534 5539 5540 5540 5541 5543 5541 5542 5542
5340 5349 5357 5364 5372 5381 5389 5403 5414 5423 5427 5434 5442 5448 5451 5455 5459 5465 5471 5476 5479 5487 5493 5497 5502 5505 5508 5509 5512 5515 5517 5519 5521 5523 5525 5529 5533 5532 5533 5536 5540 5535 5534 5535
5336 5344 5351 5359 5368 5378 5389 5402 5411 5418 5424 5431 5437 5442 5447 5451 5455 5460 5468 5474 5476 5482 5489 5493 5496 5498 5500 5503 5506 5508 5512 5513 5516 5518 5521 5524 5527 5528 5530 5531 5530 5530 5529 5528
5332 5341 5350 5359 5369 5382 5392 5401 5408 5415 5423 5429 5432 5437 5442 5448 5452 5458 5464 5470 5474 5479 5484 5488 5490 5491 5493 5497 5499 5502 5506 5509 5511 5514 5517 5519 5521 5523 5523 5524 5525 5525 5525 5525
5332 5343 5355 5366 5376 5385 5393 5400 5407 5414 5421 5428 5431 5433 5440 5444 5449 5454 5461 5466 5470 5475 5478 5481 5483 5486 5488 5491 5495 5497 5500 5503 5506 5509 5512 5514 5516 5518 5519 5520 5521 5521 5521 5521
5336 5349 5359 5369 5378 5386 5392 5399 5406 5414 5422 5427 5431 5434 5438 5442 5447 5453 5459 5463 5467 5471 5472 5474 5478 5482 5485 5488 5491 5493 5496 5499 5503 5505 5508 5510 5512 5514 5516 5516 5517 5518 5518 5518
5345 5356 5364 5372 5379 5385 5391 5398 5407 5414 5422 5426 5429 5434 5438 5441 5446 5451 5456 5460 5463 5465 5466 5470 5474 5478 5482 5485 5488 5491 5493 5496 5499 5501 5503 5506 5509 5511 5512 5513 5514 5515 5515 5516
5352 5360 5369 5375 5380 5387 5393 5399 5406 5413 5420 5426 5429 5434 5438 5442 5446 5450 5454 5457 5459 5461 5464 5468 5472 5475 5479 5482 5486 5488 5490 5493 5495 5498 5500 5503 5505 5507 5509 5510 5511 5511 5512 5512
5358 5364 5370 5376 5383 5390 5397 5404 5409 5414 5419 5425 5429 5433 5436 5441 5445 5449 5452 5454 5456 5460 5463 5467 5470 5474 5477 5481 5484 5485 5487 5490 5492 5495 5497 5499 5501 5503 5505 5506 5507 5509 5509 5510
5361 5367 5372 5378 5385 5392 5398 5403 5409 5414 5420 5424 5428 5431 5434 5439 5442 5446 5449 5452 5456 5459 5463 5466 5469 5473 5477 5479 5480 5482 5484 5486 5489 5491 5493 5495 5497 5499 5501 5503 5504 5506 5507 5508
5364 5368 5374 5382 5388 5395 5400 5406 5411 5416 5422 5424 5426 5430 5434 5438 5441 5445 5449 5452 5456 5460 5463 5465 5469 5472 5474 5475 5477 5479 5481 5483 5485 5486 5488 5490 5492 5494 5497 5499 5501 5503 5504 5505
5366 5371 5378 5384 5391 5398 5403 5408 5412 5416 5420 5423 5426 5430 5435 5439 5442 5446 5450 5452 5456 5459 5462 5464 5467 5469 5470 5471 5473 5475 5476 5477 5479 5479 5481 5484 5486 5488 5491 5493 5496 5498 5500 5502
5369 5375 5381 5388 5394 5399 5404 5409 5413 5417 5420 5423 5427 5430 5435 5439 5442 5445 5449 5452 5454 5457 5461 5462 5464 5465 5465 5466 5466 5467 5467 5468 5469 5471 5473 5476 5479 5482 5484 5487 5490 5493 5495 5497
5371 5377 5385 5391 5397 5401 5406 5410 5414 5417 5421 5424 5428 5432 5436 5440 5443 5446 5449 5451 5454 5456 5458 5459 5460 5460 5460 5459 5459 5457 5456 5456 5456 5458 5460 5465 5469 5473 5477 5481 5484 5487 5490 5493
5374 5381 5388 5393 5399 5402 5407 5411 5415 5418 5422 5426 5430 5434 5437 5440 5443 5446 5448 5450 5452 5454 5454 5455 5455 5454 5454 5453 5451 5449 5446 5443 5442 5444 5448 5452 5458 5464 5469 5474 5478 5482 5485 5488
5379 5384 5391 5395 5401 5406 5409 5412 5415 5420 5424 5427 5431 5434 5437 5440 5443 5445 5447 5449 5450 5450 5450 5450 5451 5450 5449 5447 5445 5442 5437 5432 5431 5433 5439 5445 5451 5457 5463 5469 5474 5477 5480 5483
5385 5390 5394 5398 5403 5407 5410 5414 5417 5421 5424 5428 5431 5434 5437 5440 5442 5444 5445 5446 5446 5447 5448 5449 5448 5447 5446 5444 5442 5439 5435 5432 5431 5433 5438 5443 5449 5454 5460 5465 5469 5473 5476 5479
5389 5393 5397 5400 5405 5409 5413 5416 5419 5423 5426 5429 5432 5434 5437 5439 5441 5442 5443 5443 5444 5445 5446 5447 5446 5445 5444 5443 5441 5438 5437 5436 5435 5437 5441 5444 5448 5452 5457 5461 5465 5468 5472 5474
5390 5395 5399 5402 5407 5410 5413 5417 5421 5424 5427 5429 5432 5435 5436 5438 5439 5440 5439 5440 5442 5443 5445 5445 5444 5444 5443 5442 5441 5440 5439 5438 5439 5441 5443 5446 5449 5452 5455 5458 5461 5465 5467 5470